Tracking 30986 objects as of 10-Jul-2025
HD Live streaming from Space Station
objects crossing your sky now

STARLINK-5424

Track STARLINK-5424 now!
10-day predictions
STARLINK-5424 is classified as:


NORAD ID: 54811
Int'l Code: 2022-175BF
Perigee: 545.9 km
Apogee: 547.7 km
Inclination: 53.2 °
Period: 95.4 minutes
Semi major axis: 6917 km
RCS: Unknown
Launch date: December 17, 2022
Source: United States (US)
Launch site: AIR FORCE EASTERN TEST RANGE (AFETR)
Your satellite tracking list
Your tracking list is empty




NASA's NSSDC Master Catalog

Two Line Element Set (TLE):
1 54811U 22175BF  25190.88645873  .00012233  00000-0  78485-3 0  9998
2 54811  53.2182  34.1507 0001337  87.6368 272.4777 15.08863159141383
Source of the keplerian elements: AFSPC